Ringgold, VA

2:05 AM EDT on September 25, 2016 (GMT -0400)
Danville Regional

Weather History for KDAN - November, 2013

Change the Weather History Date:

Wednesday, November 13, 2013

  Actual Average Record
Temperature  
Mean Temperature 35 °F 50 °F  
Max Temperature 47 °F 61 °F 81 °F (1955)
Min Temperature 22 °F 39 °F 22 °F (1950)
Degree Days  
Heating Degree Days 30 15  
Month to date heating degree days 203 167  
Since 1 July heating degree days 393 400  
Cooling Degree Days 0 0  
Month to date cooling degree days 0 0  
Year to date cooling degree days 1413 1436  
Moisture  
Dew Point 15 °F    
Average Humidity 47    
Maximum Humidity 68    
Minimum Humidity 25    
Precipitation  
Precipitation 0.00 in 0.10 in 1.63 in (1975)
Month to date precipitation 0.13 1.53  
Year to date precipitation 43.79 39.31  
Snow  
Snow 0.00 in - - ()
Month to date snowfall 0.0  
Since 1 July snowfall 0.0  
Since 1 September snowfall 0.0  
Snow Depth 0.00 in    
Sea Level Pressure  
Sea Level Pressure 30.48 in    
Wind  
Wind Speed 5 mph (NW)    
Max Wind Speed 15 mph    
Max Gust Speed 24 mph    
Visibility 10 miles    
Events      
T = Trace of Precipitation, MM = Missing Value Source: NWS Daily Summary

Daily Weather History Graph

Daily Weather History Graph

Search for Another Location

Airport or City:

Trip Planner

Search our weather history database for the weather conditions in past years. The results will help you decide how hot, cold, wet, or windy it might be!

Date:

Astronomy

Nov. 13, 2013 Rise Set
Actual Time 6:53 AM EST 5:09 PM EST
Civil Twilight 6:25 AM EST 5:37 PM EST
Nautical Twilight 5:54 AM EST 6:08 PM EST
Astronomical Twilight 5:24 AM EST 6:38 PM EST
Moon 2:50 PM EST (11/13) 2:50 AM EST (11/13)
Length of Visible Light 11h 11m
Length of Day
10h 16m
Waxing Gibbous, 84% of the Moon is Illuminated
Nov 13
Waxing Gibbous
Nov 17
Full
Nov 25
Last Quarter
Dec 2
New
Dec 9
First Quarter

Hourly Weather History & Observations

Time (EST) Temp. Windchill Dew Point Humidity Pressure Visibility Wind Dir Wind Speed Gust Speed Precip Events Conditions
12:53 AM 30.9 °F 27.5 °F 12.9 °F 47% 30.44 in 10.0 mi NNW 3.5 mph - N/A   Clear
1:53 AM 27.0 °F - 15.1 °F 61% 30.45 in 10.0 mi Calm Calm - N/A   Clear
2:53 AM 28.0 °F 24.2 °F 15.1 °F 58% 30.46 in 10.0 mi West 3.5 mph - N/A   Clear
3:53 AM 28.9 °F 23.9 °F 15.1 °F 56% 30.45 in 10.0 mi WNW 4.6 mph - N/A   Clear
4:53 AM 27.0 °F 21.6 °F 16.0 °F 63% 30.46 in 10.0 mi NW 4.6 mph - N/A   Clear
5:53 AM 25.0 °F - 16.0 °F 69% 30.49 in 10.0 mi Calm Calm - N/A   Clear
6:53 AM 26.1 °F 19.4 °F 17.1 °F 69% 30.50 in 10.0 mi NW 5.8 mph - N/A   Clear
7:53 AM 30.9 °F 23.5 °F 18.0 °F 59% 30.53 in 10.0 mi NW 8.1 mph - N/A   Clear
8:53 AM 35.1 °F 27.4 °F 18.0 °F 50% 30.54 in 10.0 mi NNW 10.4 mph - N/A   Clear
9:53 AM 37.9 °F 30.0 °F 14.0 °F 38% 30.55 in 10.0 mi North 12.7 mph 20.7 mph N/A   Clear
10:53 AM 39.9 °F 33.9 °F 14.0 °F 35% 30.54 in 10.0 mi NNW 9.2 mph 16.1 mph N/A   Clear
11:53 AM 41.0 °F 39.0 °F 15.1 °F 35% 30.52 in 10.0 mi West 3.5 mph - N/A   Clear
12:53 PM 44.1 °F 38.1 °F 14.0 °F 30% 30.48 in 10.0 mi NNW 11.5 mph - N/A   Clear
1:53 PM 45.0 °F 39.7 °F 14.0 °F 29% 30.48 in 10.0 mi WNW 10.4 mph 16.1 mph N/A   Clear
2:53 PM 46.9 °F - 12.9 °F 25% 30.45 in 10.0 mi North 6.9 mph - N/A   Clear
3:53 PM 46.9 °F - 12.9 °F 25% 30.46 in 10.0 mi North 8.1 mph - N/A   Clear
4:53 PM 44.1 °F 42.5 °F 12.0 °F 27% 30.46 in 10.0 mi North 3.5 mph - N/A   Clear
5:53 PM 33.1 °F - 15.1 °F 48% 30.47 in 10.0 mi Calm Calm - N/A   Clear
6:53 PM 32.0 °F - 15.1 °F 50% 30.48 in 10.0 mi Calm Calm - N/A   Clear
7:53 PM 30.0 °F 25.2 °F 15.1 °F 54% 30.48 in 10.0 mi SSW 4.6 mph - N/A   Clear
8:53 PM 27.0 °F - 17.1 °F 66% 30.48 in 10.0 mi Calm Calm - N/A   Clear
9:53 PM 26.1 °F 20.5 °F 16.0 °F 66% 30.47 in 10.0 mi West 4.6 mph - N/A   Clear
10:53 PM 26.1 °F - 17.1 °F 69% 30.46 in 10.0 mi Calm Calm - N/A   Clear
11:53 PM 25.0 °F 20.7 °F 17.1 °F 72% 30.45 in 10.0 mi SW 3.5 mph - N/A   Clear